[[{"header":{"parameterUnit":"m.s-1","parameterCategory":1,"la1":30.2991,"la2":30.254,"lo1":-89.0895,"lo2":-89.0444,"dy":0.0017,"dx":0.0017,"nx":28,"ny":28,"refTime":"2024-07-01T09:00:00:Z","depth":0,"parameterNumber":2,"parameterNumberName":"U-component_of_WINDS"},"data":[0,0,0,0,0,0,0,0,0,0,0,0,0,0,0,0,0,0,0,0,0,0,0,0,0,0,0,0,0,0,0,0,0,0,0,0,0,0,0,0,0,0,0,0,0,0,0,0,0,0,0,0,0,0,0,0,0,0,1.9214,1.9215,0,1.9295,1.9295,1.9296,1.9271,1.9269,1.9267,1.9266,1.9354,1.9358,1.9362,0,0,0,0,0,0,0,0,0,0,0,0,0,1.9043,1.9046,1.9214,1.9215,1.9216,1.9294,1.9295,1.9297,1.9271,1.9269,1.9267,1.9265,1.9353,1.9358,1.9362,0,0,0,0,0,0,0,0,0,0,0,0,0,1.912,1.9047,1.9214,1.9213,1.9213,1.9294,1.9296,1.9297,1.9272,1.9269,1.9266,1.9264,1.9351,1.9357,1.9363,1.9452,0,0,1.9381,1.9384,0,0,0,0,0,0,0,0,1.9116,1.9126,1.9212,1.9213,1.9214,1.927,1.9268,1.9349,1.9272,1.925,1.9266,1.9263,1.9329,1.9336,1.9357,1.9456,1.946,1.9382,1.9385,1.9388,1.939,0,0,0,0,0,0,0,1.911,1.9123,1.9246,1.9213,1.9214,1.921,1.9218,1.9283,1.9303,1.9252,1.925,1.9259,1.9329,1.9352,1.9359,1.9461,1.9382,1.9387,1.9391,1.9393,1.9635,1.9637,0,0,0,0,0,0,1.9104,1.9118,1.9244,1.9248,1.9157,1.9215,1.9224,1.9255,1.9302,1.9307,1.9261,1.9258,1.9343,1.9352,1.9362,1.9468,1.9388,1.9393,1.9397,1.9632,1.9635,1.9638,0,0,0,0,0,0,1.91,1.9115,1.924,1.9183,1.9198,1.922,1.9255,1.9258,1.928,1.931,1.9314,1.9281,1.9341,1.9354,1.9429,1.947,1.9396,1.9402,1.9629,1.9633,1.9637,1.968,0,0,0,0,0,0,1.9095,1.9114,1.9147,1.9184,1.9202,1.9304,1.9258,1.9261,1.929,1.9286,1.9329,1.9334,1.934,1.942,1.9435,1.9477,1.9406,1.9625,1.9631,1.9636,1.9675,1.9685,1.9694,0,0,0,0,0,1.9089,1.9158,1.9149,1.9164,1.9243,1.9307,1.9317,1.9321,1.9293,1.9327,1.9346,1.9332,1.9464,1.9428,1.9444,1.9489,1.9622,1.9629,1.9635,1.9671,1.9683,1.9694,0,0,0,0,0,0,1.9127,1.9162,1.9153,1.9235,1.9268,1.9302,1.9345,1.9335,1.9378,1.9373,1.9378,1.9388,1.9465,1.9485,1.9444,1.9577,1.9539,1.9549,1.9561,1.9573,1.9582,1.9575,1.9411,0,0,0,0,0,1.9145,1.9192,1.9221,1.9291,1.9307,1.9323,1.9351,1.9351,1.9386,1.9401,1.9425,1.9461,1.951,1.9543,1.959,1.9678,1.9687,1.9717,1.9727,1.9734,1.9743,1.9789,1.9803,1.966,1.966,1.9659,0,0,1.9183,1.9207,1.9237,1.9299,1.9324,1.9374,1.9335,1.939,1.9427,1.941,1.9481,1.95,1.9541,1.9622,1.9659,1.9641,1.9784,1.9742,1.9748,1.9753,1.9797,1.9811,1.9823,1.9664,1.9663,1.9662,0,0,1.9276,1.93,1.9359,1.9385,1.9423,1.9433,1.9447,1.9483,1.9494,1.9565,1.9552,1.9598,1.9683,1.9712,1.9738,1.984,1.9829,1.9856,1.9905,1.9951,1.9962,1.9972,2.0007,2.002,1.9864,1.9864,1.9864,0,1.9318,1.9391,1.9392,1.9446,1.9474,1.9458,1.9518,1.9544,1.9597,1.9616,1.9595,1.97,1.9727,1.9813,1.9838,1.986,1.9877,1.985,1.996,1.997,1.9979,2.0013,2.0027,1.9867,1.9867,1.9866,1.9866,0,1.944,1.9491,1.9535,1.9582,1.9615,1.9673,1.9683,1.9716,1.9714,1.9726,1.9798,1.9829,1.9881,1.9902,1.9902,1.9989,1.9977,1.9958,1.992,1.9996,2.0028,2.0041,1.9871,1.987,1.9869,1.9869,0,0,1.956,1.9606,1.9622,1.9643,1.9683,1.9723,1.978,1.9829,1.9856,1.9893,1.9941,2.0012,1.9994,2.0024,2.0026,2.0066,2.0144,2.0042,2.0043,2.0059,2.0241,2.0254,2.0269,2.0136,2.0139,2.0141,2.0237,0,1.9656,1.9753,1.9755,1.9845,1.9892,1.9877,1.9927,1.9957,1.997,2.0013,2.0028,2.0078,2.0051,2.0068,2.0107,2.0126,2.018,2.0119,2.0182,2.0184,2.0171,2.0286,2.03,2.0389,2.0249,2.0252,2.0253,0,1.978,1.9817,1.9911,1.9943,1.9962,2.0007,2.005,2.0091,2.0126,2.0132,2.0164,2.016,2.0219,2.018,2.0261,2.022,2.0246,2.0259,2.0262,2.0268,2.0222,2.0293,2.0418,2.043,2.0273,2.0272,2.027,0,1.9856,1.9931,1.9996,2.0014,2.0053,2.0084,2.0103,2.0134,2.0163,2.0202,2.022,2.0267,2.0293,2.0329,2.0338,2.0309,2.042,2.0381,2.0427,2.0427,2.0451,2.0449,2.058,2.0469,2.0469,2.0469,2.0469,0,1.9962,2.002,2.003,2.007,2.0134,2.0137,2.0201,2.0217,2.0245,2.0289,2.028,2.0322,2.0331,2.0375,2.0383,2.0449,2.0461,2.0468,2.0469,2.0468,2.0467,2.0485,2.0478,2.0473,2.0472,2.0471,2.047,0,2.0058,2.0067,2.0137,2.0167,2.0176,2.0222,2.0248,2.0287,2.0299,2.0354,2.0367,2.0386,2.0437,2.0449,2.0511,2.0516,2.0594,2.059,2.0581,2.058,2.0625,2.062,2.0771,2.0791,2.0669,2.067,2.0671,0,2.0124,2.0168,2.0202,2.0229,2.0247,2.0292,2.032,2.0325,2.0355,2.0396,2.043,2.0479,2.0519,2.0601,2.0621,2.0668,2.0665,2.0714,2.0672,2.0669,2.0664,2.0661,2.0665,2.0722,2.0724,2.0725,2.0726,0,2.0241,2.0242,2.0282,2.0323,2.0356,2.039,2.0422,2.0445,2.0454,2.0488,2.0538,2.0569,2.063,2.0679,2.0726,2.0746,2.0738,2.0739,2.0752,2.075,2.0743,2.0746,2.0602,2.0735,2.0734,2.0734,2.0733,2.0733,2.0323,2.036,2.0389,2.0433,2.0457,2.0486,2.0523,2.0538,2.058,2.0628,2.0629,2.0683,2.0716,2.0777,2.08,2.0844,2.0829,2.0848,2.0853,2.0857,2.086,2.0736,2.0853,2.0853,2.0853,2.0853,2.0852,0,2.0438,2.0455,2.0495,2.0538,2.0573,2.0559,2.0594,2.0624,2.0671,2.0702,2.074,2.0797,2.0845,2.0868,2.0915,2.0945,2.0942,2.0957,2.0955,2.0959,2.0872,2.0855,2.0959,2.0959,2.0959,2.0959,2.0959,2.0959,2.0501,2.0562,2.0567,2.0641,2.0658,2.0709,2.073,2.0757,2.0781,2.0844,2.0882,2.0896,2.0924,2.0972,2.1015,2.1021,2.1038,2.1055,2.1059,2.0977,2.0966,2.0955,2.094,2.1059,2.1059,2.1142,2.1143,2.1144]},{"header":{"parameterUnit":"m.s-1","parameterCategory":1,"la1":30.2991,"la2":30.254,"lo1":-89.0895,"lo2":-89.0444,"dy":0.0017,"dx":0.0017,"nx":28,"ny":28,"refTime":"2024-07-01T09:00:00:Z","depth":0,"parameterNumber":3,"parameterNumberName":"V-component_of_WINDS"},"data":[0,0,0,0,0,0,0,0,0,0,0,0,0,0,0,0,0,0,0,0,0,0,0,0,0,0,0,0,0,0,0,0,0,0,0,0,0,0,0,0,0,0,0,0,0,0,0,0,0,0,0,0,0,0,0,0,0,0,1.9472,1.9473,0,1.9504,1.9504,1.9504,1.9468,1.9467,1.9465,1.9464,1.9495,1.9497,1.9499,0,0,0,0,0,0,0,0,0,0,0,0,0,1.9379,1.9381,1.9472,1.9473,1.9473,1.9504,1.9504,1.9504,1.9468,1.9467,1.9465,1.9463,1.9494,1.9496,1.9499,0,0,0,0,0,0,0,0,0,0,0,0,0,1.9416,1.9382,1.9472,1.9459,1.9458,1.9504,1.9504,1.9505,1.9469,1.9467,1.9465,1.9463,1.9493,1.9496,1.9499,1.9559,0,0,1.9509,1.951,0,0,0,0,0,0,0,0,1.9414,1.9419,1.946,1.946,1.9459,1.948,1.9482,1.9523,1.9469,1.9465,1.9464,1.9462,1.9491,1.9494,1.9505,1.9561,1.9562,1.9509,1.9511,1.9512,1.9513,0,0,0,0,0,0,0,1.9412,1.9418,1.9485,1.9461,1.946,1.9451,1.9454,1.949,1.9489,1.9465,1.9462,1.9467,1.9491,1.9502,1.9505,1.9562,1.9509,1.9512,1.9514,1.9515,1.9668,1.9671,0,0,0,0,0,0,1.9411,1.9416,1.9484,1.9486,1.9431,1.9454,1.9457,1.9475,1.9488,1.9489,1.9468,1.9465,1.9498,1.9502,1.9506,1.9577,1.9512,1.9515,1.9517,1.9666,1.9669,1.9671,0,0,0,0,0,0,1.9409,1.9417,1.9482,1.945,1.9458,1.9458,1.9478,1.9477,1.9488,1.9491,1.949,1.948,1.9496,1.9502,1.9546,1.9578,1.9517,1.9519,1.9664,1.9667,1.967,1.972,0,0,0,0,0,0,1.9406,1.9417,1.944,1.9451,1.946,1.9523,1.948,1.9479,1.9494,1.949,1.9502,1.9502,1.9495,1.9542,1.9549,1.9581,1.9522,1.9661,1.9665,1.9669,1.9716,1.9725,1.9733,0,0,0,0,0,1.9403,1.9453,1.9442,1.945,1.9489,1.9525,1.953,1.9521,1.9497,1.952,1.9521,1.9502,1.9573,1.9547,1.9555,1.9588,1.9659,1.9664,1.9669,1.9712,1.9723,1.9732,0,0,0,0,0,0,1.9445,1.9454,1.9442,1.9496,1.951,1.9519,1.9548,1.9533,1.9554,1.9549,1.9536,1.9539,1.9587,1.9591,1.9562,1.9646,1.9612,1.9619,1.9642,1.9652,1.9661,1.9659,1.9525,0,0,0,0,0,1.9461,1.949,1.9496,1.9543,1.9551,1.9548,1.9563,1.9555,1.9569,1.9575,1.9579,1.9593,1.9618,1.9635,1.9659,1.9716,1.9718,1.9742,1.9751,1.9758,1.9764,1.9794,1.9805,1.9688,1.9688,1.9688,0,0,1.9494,1.9502,1.9521,1.9552,1.9562,1.9591,1.9553,1.9587,1.9608,1.9579,1.9622,1.9626,1.964,1.9691,1.9714,1.9697,1.9797,1.9764,1.9769,1.9772,1.9801,1.9812,1.9822,1.9691,1.969,1.969,0,0,1.9569,1.9578,1.9618,1.9629,1.9644,1.9642,1.9652,1.9662,1.9664,1.9707,1.9686,1.9711,1.9755,1.9766,1.9777,1.9855,1.9838,1.9863,1.9907,1.9937,1.9946,1.9954,1.9983,1.9993,1.9869,1.9869,1.9869,0,1.9607,1.9652,1.9641,1.9676,1.969,1.9665,1.9706,1.9716,1.9738,1.9748,1.9729,1.9783,1.9791,1.9844,1.9863,1.9873,1.9884,1.9862,1.9946,1.9954,1.9961,1.9988,1.9999,1.9872,1.9872,1.9871,1.9871,0,1.9699,1.973,1.9761,1.9783,1.9801,1.9838,1.9832,1.9851,1.9841,1.984,1.9884,1.9892,1.9917,1.9928,1.9919,1.998,1.9969,1.9948,1.9913,1.9976,2.0001,2.0011,1.9876,1.9875,1.9874,1.9874,0,0,1.9803,1.9818,1.983,1.9839,1.9854,1.9878,1.9913,1.9938,1.9954,1.997,1.9999,2.0037,2.0017,2.003,2.0021,2.0047,2.0109,2.0022,2.0022,2.0039,2.0177,2.0194,2.0206,2.0097,2.0098,2.01,2.0176,0,1.9878,1.9942,1.9932,1.9993,2.0022,1.9998,2.0029,2.0041,2.0041,2.0064,2.0064,2.0091,2.0063,2.007,2.0095,2.0096,2.0136,2.009,2.0124,2.0126,2.0123,2.0219,2.0237,2.0308,2.0186,2.0187,2.0188,0,1.9975,1.9995,2.0059,2.0069,2.008,2.0109,2.013,2.0153,2.0166,2.0164,2.0178,2.0164,2.0199,2.0163,2.0211,2.018,2.0193,2.0195,2.0198,2.0202,2.0162,2.0226,2.033,2.0342,2.0203,2.0202,2.0201,0,2.0046,2.0088,2.0131,2.014,2.0153,2.0173,2.0179,2.019,2.0205,2.0223,2.0233,2.0254,2.0267,2.0284,2.0276,2.025,2.0326,2.0289,2.0325,2.0325,2.0343,2.0342,2.0452,2.035,2.035,2.035,2.0349,0,2.0132,2.0172,2.0163,2.019,2.0234,2.0222,2.0266,2.0268,2.0278,2.0305,2.0284,2.031,2.0297,2.0321,2.0315,2.0356,2.0361,2.0361,2.0359,2.0363,2.0364,2.0373,2.0368,2.0352,2.0352,2.0351,2.0351,0,2.0218,2.0214,2.026,2.0267,2.027,2.0302,2.0309,2.0333,2.0331,2.0365,2.0373,2.037,2.0397,2.039,2.042,2.0416,2.0468,2.0459,2.0464,2.0462,2.0499,2.0496,2.062,2.0635,2.0522,2.0523,2.0524,0,2.0274,2.0304,2.0315,2.0332,2.034,2.0366,2.0382,2.0371,2.0387,2.0404,2.0426,2.0452,2.0472,2.0516,2.0517,2.0539,2.0531,2.0573,2.0534,2.0538,2.0533,2.0531,2.0534,2.0581,2.0582,2.0583,2.0584,0,2.0374,2.037,2.0393,2.0416,2.0435,2.0451,2.0466,2.0481,2.0471,2.049,2.0518,2.0534,2.0564,2.059,2.061,2.0615,2.0598,2.0596,2.0606,2.0611,2.0613,2.0613,2.0486,2.0594,2.0593,2.0592,2.0591,2.0591,2.0447,2.0473,2.0485,2.0511,2.0521,2.0535,2.0559,2.056,2.0583,2.0608,2.0599,2.0631,2.0642,2.0668,2.0675,2.07,2.0684,2.0698,2.0701,2.0705,2.071,2.0608,2.0703,2.0703,2.0702,2.0702,2.0702,0,2.0547,2.0553,2.0577,2.0599,2.0619,2.0601,2.0616,2.0635,2.0663,2.0675,2.0695,2.0727,2.0751,2.0753,2.0776,2.0795,2.0787,2.0801,2.08,2.0802,2.0723,2.0713,2.0807,2.0807,2.0807,2.0807,2.0807,2.0806,2.0601,2.0644,2.0641,2.0688,2.0694,2.0725,2.0735,2.0748,2.0758,2.0794,2.0815,2.0815,2.0823,2.0846,2.0867,2.0867,2.0877,2.0894,2.0891,2.0817,2.0807,2.0797,2.0788,2.0896,2.0896,2.0967,2.0968,2.0969]}]]